Charlottesville, VA

3:22 AM EDT on June 21, 2018 (GMT -0400)
Charlottesville-Albemarle

Weather History for KCHO - July, 2014

Change the Weather History Date:

Wednesday, July 16, 2014

  Actual Average Record
Temperature  
Mean Temperature 74 °F 76 °F  
Max Temperature 81 °F 86 °F 100 °F (1997)
Min Temperature 67 °F 65 °F 56 °F (2001)
Degree Days  
Heating Degree Days 0 0  
Month to date heating degree days 0 0  
Since 1 June heating degree days 2 11  
Since 1 July heating degree days 0 0  
Cooling Degree Days 9 11  
Month to date cooling degree days 190 171  
Year to date cooling degree days 578 476  
Since 1 June cooling degree days 462 390  
Growing Degree Days 24 (Base 50)    
Moisture  
Dew Point 58 °F    
Average Humidity 65    
Maximum Humidity 90    
Minimum Humidity 39    
Precipitation  
Precipitation 0.00 in 0.16 in 0.02 in (2016)
Month to date precipitation 2.13 2.17  
Year to date precipitation 23.25 22.37  
Sea Level Pressure  
Sea Level Pressure 29.86 in    
Wind  
Wind Speed 4 mph (North)    
Max Wind Speed 10 mph    
Max Gust Speed 13 mph    
Visibility 10 miles    
Events      
T = Trace of Precipitation, MM = Missing Value Source: NWS Daily Summary

Daily Weather History Graph

Daily Weather History Graph

Search for Another Location

Airport or City:

Astronomy

Jul. 16, 2014 Rise Set
Actual Time 6:03 AM EDT 8:35 PM EDT
Civil Twilight 5:33 AM EDT 9:06 PM EDT
Nautical Twilight 4:55 AM EDT 9:44 PM EDT
Astronomical Twilight 4:12 AM EDT 10:26 PM EDT
Moon 11:24 PM EDT (7/16) 11:00 AM EDT (7/16)
Length of Visible Light 15h 33m
Length of Day
14h 32m
Waning Gibbous, 76% of the Moon is Illuminated
Jul 16
Waning Gibbous
Jul 18
Last Quarter
Jul 26
New
Aug 3
First Quarter
Aug 10
Full

Hourly Weather History & Observations

Time (EDT) Temp. Heat Index Dew Point Humidity Pressure Visibility Wind Dir Wind Speed Gust Speed Precip Events Conditions
12:53 AM 71.1 °F - 66.9 °F 87% 29.79 in 10.0 mi North 4.6 mph - N/A   Partly Cloudy
1:53 AM 70.0 °F - 66.9 °F 90% 29.79 in 10.0 mi Calm Calm - N/A   Overcast
2:53 AM 72.0 °F - 61.0 °F 68% 29.79 in 10.0 mi NW 5.8 mph - N/A   Mostly Cloudy
3:53 AM 71.1 °F - 61.0 °F 70% 29.79 in 10.0 mi Calm Calm - N/A   Overcast
4:53 AM 70.0 °F - 57.0 °F 63% 29.80 in 10.0 mi NNW 3.5 mph - N/A   Overcast
5:53 AM 70.0 °F - 54.0 °F 57% 29.83 in 10.0 mi Variable 4.6 mph - N/A   Overcast
6:53 AM 68.0 °F - 55.0 °F 63% 29.85 in 10.0 mi NNW 4.6 mph - N/A   Mostly Cloudy
7:53 AM 71.1 °F - 55.9 °F 59% 29.87 in 10.0 mi NNW 4.6 mph - N/A   Mostly Cloudy
8:53 AM 73.0 °F - 55.9 °F 55% 29.88 in 10.0 mi Variable 4.6 mph - N/A   Overcast
9:53 AM 73.9 °F - 55.0 °F 52% 29.89 in 10.0 mi North 6.9 mph - N/A   Clear
10:53 AM 75.0 °F - 53.1 °F 46% 29.90 in 10.0 mi North 5.8 mph - N/A   Clear
11:53 AM 75.9 °F - 55.9 °F 50% 29.90 in 10.0 mi Variable 4.6 mph - N/A   Clear
12:53 PM 75.9 °F - 55.0 °F 48% 29.89 in 10.0 mi NW 5.8 mph - N/A   Clear
1:53 PM 78.1 °F - 55.9 °F 46% 29.88 in 10.0 mi ENE 4.6 mph - N/A   Scattered Clouds
2:53 PM 80.1 °F 80.2 °F 55.9 °F 43% 29.86 in 10.0 mi Variable 3.5 mph - N/A   Partly Cloudy
3:53 PM 79.0 °F - 55.0 °F 44% 29.86 in 10.0 mi North 4.6 mph - N/A   Scattered Clouds
4:53 PM 80.1 °F 80.0 °F 54.0 °F 40% 29.85 in 10.0 mi Calm Calm - N/A   Clear
5:53 PM 79.0 °F - 55.9 °F 45% 29.85 in 10.0 mi East 6.9 mph - N/A   Mostly Cloudy
6:53 PM 78.1 °F - 55.0 °F 45% 29.86 in 10.0 mi ENE 4.6 mph - N/A   Overcast
7:53 PM 75.0 °F - 60.1 °F 60% 29.88 in 10.0 mi ENE 5.8 mph - N/A   Mostly Cloudy
8:53 PM 73.0 °F - 61.0 °F 66% 29.90 in 10.0 mi ENE 4.6 mph - N/A   Mostly Cloudy
9:53 PM 71.1 °F - 61.0 °F 70% 29.92 in 10.0 mi North 4.6 mph - N/A   Overcast
10:53 PM 70.0 °F - 60.1 °F 71% 29.94 in 10.0 mi North 5.8 mph - N/A   Overcast
11:53 PM 68.0 °F - 59.0 °F 73% 29.95 in 10.0 mi NNW 3.5 mph - N/A   Mostly Cloudy